sat.trackr.live / text

‹ back to catalog

STARLINK-2727

NORAD 48652 · 2021-044Q

PAYLOAD ACTIVE UNKNOWN

§ Identity

Operator
Country
US
Launch date
2021-05-26
Launch site
AFETR
Launch vehicle
Mass (kg)
RCS (m²)

Purposes: comms

External: N2YO · Heavens-Above · Gunter

§ Orbital elements

Epoch: 2026-08-30T12:13:42.153888Z

Period
88.17 min
Inclination
53.0225°
Eccentricity
0.0009836
Mean motion
16.33273600 rev/d
Perigee alt
177.3 km
Apogee alt
190.2 km
Semi-major
6,561.9 km
B*
8.9246e-4
RAAN
331.8233°
Arg perigee
327.8723°
Mean anomaly
32.1719°
Rev number
29,115

§ Raw data

STARLINK-27271 48652U 21044Q   26242.50951567  .05864697  12265-4  89246-3 0  99972 48652  53.0225 331.8233 0009836 327.8723  32.1719 16.33273600291157

JSON: /api/v1/satellites/48652 · /tle

For live sub-satellite position, see the globe view (requires WebGL).

§ Visibility from observer

Set your observer location to see the next 7 days of passes ≥ 10°. The values pass through the URL so the page stays shareable.

No JS? Fill the form by hand. The geolocation button needs JavaScript.